contact:dominique.lefevre@mio.osupytheas.fr, maurice.libes@osupytheas.fr, didier.mallarino@osupytheas.fr
Project:EMSO http://www.emso-fr.org/EMSO-France
Depth: 2436.0 m
Title:EMSO Ligure Ouest : Data MII capteur CSTAR
DateTime,Latitude,Longitude,Instrument_Serial,Reference_Counts,Signal_Counts,Corrected_Signal_raw_counts,Calculated_Beam_c_inverse_meters,Internal_thermistor_counts
DateTime,Latitude,Longitude,Instrument_Serial,Reference_Counts,Signal_Counts,Corrected_Signal_raw_counts,Calculated_Beam_c_inverse_meters,Internal_thermistor_counts
2024-01-04T00:02:17,42.805,6.029,CST-1368DR,4069,4275,11130,01.355,553
2024-01-04T00:05:19,42.805,6.029,CST-1368DR,4069,4276,11132,01.354,553
2024-01-04T00:08:21,42.805,6.029,CST-1368DR,4069,4277,11134,01.353,553
2024-01-04T00:11:22,42.805,6.029,CST-1368DR,4069,4276,11132,01.354,553
2024-01-04T00:14:24,42.805,6.029,CST-1368DR,4069,4276,11132,01.354,553
2024-01-04T00:17:25,42.805,6.029,CST-1368DR,4069,4278,11136,01.352,553
2024-01-04T00:20:27,42.805,6.029,CST-1368DR,4069,4275,11130,01.355,553
2024-01-04T00:23:28,42.805,6.029,CST-1368DR,4069,4276,11132,01.354,553
2024-01-04T00:26:30,42.805,6.029,CST-1368DR,4069,4270,11116,01.360,553
2024-01-04T00:29:32,42.805,6.029,CST-1368DR,4069,4273,11125,01.356,553
2024-01-04T00:32:33,42.805,6.029,CST-1368DR,4069,4276,11132,01.354,553
2024-01-04T00:35:35,42.805,6.029,CST-1368DR,4069,4275,11129,01.355,553
2024-01-04T00:38:36,42.805,6.029,CST-1368DR,4069,4274,11128,01.355,553
2024-01-04T00:41:38,42.805,6.029,CST-1368DR,4069,4272,11123,01.357,553
2024-01-04T00:44:39,42.805,6.029,CST-1368DR,4069,4275,11129,01.355,553
2024-01-04T00:47:41,42.805,6.029,CST-1368DR,4069,4274,11127,01.356,553
2024-01-04T00:50:43,42.805,6.029,CST-1368DR,4069,4276,11133,01.354,553
2024-01-04T00:53:44,42.805,6.029,CST-1368DR,4069,4274,11128,01.355,553
2024-01-04T00:56:46,42.805,6.029,CST-1368DR,4069,4277,11134,01.353,553
2024-01-04T00:59:47,42.805,6.029,CST-1368DR,4069,4276,11132,01.354,553
2024-01-04T01:02:49,42.805,6.029,CST-1368DR,4069,4275,11128,01.355,553
2024-01-04T01:05:51,42.805,6.029,CST-1368DR,4069,4277,11134,01.353,553
2024-01-04T01:08:52,42.805,6.029,CST-1368DR,4069,4276,11133,01.354,553
2024-01-04T01:11:54,42.805,6.029,CST-1368DR,4069,4277,11135,01.353,553
2024-01-04T01:14:55,42.805,6.029,CST-1368DR,4069,4277,11134,01.353,553
2024-01-04T01:17:57,42.805,6.029,CST-1368DR,4069,4276,11133,01.354,553
2024-01-04T01:20:58,42.805,6.029,CST-1368DR,4069,4280,11141,01.351,553
2024-01-04T01:24:00,42.805,6.029,CST-1368DR,4069,4278,11136,01.352,553
2024-01-04T01:27:02,42.805,6.029,CST-1368DR,4069,4278,11136,01.352,553
2024-01-04T01:30:03,42.805,6.029,CST-1368DR,4069,4276,11132,01.354,553
2024-01-04T01:33:05,42.805,6.029,CST-1368DR,4069,4276,11133,01.354,553
2024-01-04T01:36:06,42.805,6.029,CST-1368DR,4069,4278,11137,01.352,553
2024-01-04T01:39:08,42.805,6.029,CST-1368DR,4069,4276,11133,01.354,553
2024-01-04T01:42:09,42.805,6.029,CST-1368DR,4069,4275,11129,01.355,553
2024-01-04T01:45:11,42.805,6.029,CST-1368DR,4069,4276,11133,01.354,553
2024-01-04T01:48:13,42.805,6.029,CST-1368DR,4069,4277,11135,01.353,553
2024-01-04T01:51:14,42.805,6.029,CST-1368DR,4069,4274,11126,01.356,553
2024-01-04T01:54:16,42.805,6.029,CST-1368DR,4069,4273,11124,01.357,553
2024-01-04T01:57:17,42.805,6.029,CST-1368DR,4069,4276,11132,01.354,553
2024-01-04T02:00:19,42.805,6.029,CST-1368DR,4069,4276,11132,01.354,553
2024-01-04T02:03:21,42.805,6.029,CST-1368DR,4069,4275,11130,01.355,553
2024-01-04T02:06:22,42.805,6.029,CST-1368DR,4069,4274,11127,01.356,553
2024-01-04T02:09:24,42.805,6.029,CST-1368DR,4069,4276,11133,01.354,553
2024-01-04T02:12:25,42.805,6.029,CST-1368DR,4069,4276,11132,01.354,553
2024-01-04T02:15:27,42.805,6.029,CST-1368DR,4069,4278,11138,01.352,553
2024-01-04T02:18:28,42.805,6.029,CST-1368DR,4069,4278,11137,01.352,553
2024-01-04T02:21:30,42.805,6.029,CST-1368DR,4069,4277,11134,01.353,553
2024-01-04T02:24:32,42.805,6.029,CST-1368DR,4069,4276,11132,01.354,553
2024-01-04T02:27:33,42.805,6.029,CST-1368DR,4069,4277,11134,01.353,553
2024-01-04T02:30:35,42.805,6.029,CST-1368DR,4069,4278,11137,01.352,553
2024-01-04T02:33:36,42.805,6.029,CST-1368DR,4069,4277,11136,01.352,553
2024-01-04T02:36:38,42.805,6.029,CST-1368DR,4069,4280,11142,01.350,553
2024-01-04T02:39:39,42.805,6.029,CST-1368DR,4069,4276,11132,01.354,553
2024-01-04T02:42:41,42.805,6.029,CST-1368DR,4069,4278,11137,01.352,553
2024-01-04T02:45:43,42.805,6.029,CST-1368DR,4069,4277,11134,01.353,553
2024-01-04T02:48:44,42.805,6.029,CST-1368DR,4069,4277,11134,01.353,553
2024-01-04T02:51:46,42.805,6.029,CST-1368DR,4069,4277,11135,01.353,553
2024-01-04T02:54:47,42.805,6.029,CST-1368DR,4069,4278,11136,01.352,553
2024-01-04T02:57:49,42.805,6.029,CST-1368DR,4069,4278,11137,01.352,553
2024-01-04T03:00:50,42.805,6.029,CST-1368DR,4069,4277,11134,01.353,553
2024-01-04T03:03:52,42.805,6.029,CST-1368DR,4069,4278,11136,01.352,553
2024-01-04T03:06:54,42.805,6.029,CST-1368DR,4069,4277,11134,01.353,553
2024-01-04T03:09:55,42.805,6.029,CST-1368DR,4069,4276,11132,01.354,553
2024-01-04T03:12:57,42.805,6.029,CST-1368DR,4069,4274,11128,01.355,553
2024-01-04T03:15:58,42.805,6.029,CST-1368DR,4069,4278,11137,01.352,553
2024-01-04T03:19:00,42.805,6.029,CST-1368DR,4069,4277,11136,01.352,553
2024-01-04T03:22:02,42.805,6.029,CST-1368DR,4069,4277,11134,01.353,553
2024-01-04T03:25:03,42.805,6.029,CST-1368DR,4069,4274,11126,01.356,553
2024-01-04T03:28:05,42.805,6.029,CST-1368DR,4069,4276,11133,01.354,553
2024-01-04T03:31:06,42.805,6.029,CST-1368DR,4069,4278,11136,01.352,553
2024-01-04T03:34:08,42.805,6.029,CST-1368DR,4069,4278,11138,01.352,553
2024-01-04T03:37:09,42.805,6.029,CST-1368DR,4069,4275,11128,01.355,553
2024-01-04T03:40:11,42.805,6.029,CST-1368DR,4069,4275,11130,01.355,553
2024-01-04T03:43:13,42.805,6.029,CST-1368DR,4069,4275,11129,01.355,553
2024-01-04T03:46:14,42.805,6.029,CST-1368DR,4069,4277,11135,01.353,553
2024-01-04T03:49:16,42.805,6.029,CST-1368DR,4069,4276,11133,01.354,553
2024-01-04T03:52:17,42.805,6.029,CST-1368DR,4069,4275,11130,01.355,553
2024-01-04T03:55:19,42.805,6.029,CST-1368DR,4069,4275,11128,01.355,553
2024-01-04T03:58:20,42.805,6.029,CST-1368DR,4069,4277,11136,01.352,553
2024-01-04T04:01:22,42.805,6.029,CST-1368DR,4069,4277,11135,01.353,553
2024-01-04T04:04:24,42.805,6.029,CST-1368DR,4069,4277,11136,01.352,553
2024-01-04T04:07:25,42.805,6.029,CST-1368DR,4069,4278,11138,01.352,553
2024-01-04T04:10:27,42.805,6.029,CST-1368DR,4069,4277,11134,01.353,553
2024-01-04T04:13:28,42.805,6.029,CST-1368DR,4069,4277,11136,01.352,553
2024-01-04T04:16:30,42.805,6.029,CST-1368DR,4069,4277,11134,01.353,553
2024-01-04T04:19:32,42.805,6.029,CST-1368DR,4069,4277,11134,01.353,553
2024-01-04T04:22:33,42.805,6.029,CST-1368DR,4069,4275,11130,01.355,553
2024-01-04T04:25:35,42.805,6.029,CST-1368DR,4069,4275,11130,01.355,553
2024-01-04T04:28:36,42.805,6.029,CST-1368DR,4069,4276,11133,01.354,553
2024-01-04T04:31:38,42.805,6.029,CST-1368DR,4069,4276,11133,01.354,553
2024-01-04T04:34:39,42.805,6.029,CST-1368DR,4069,4275,11130,01.355,553
2024-01-04T04:37:41,42.805,6.029,CST-1368DR,4069,4274,11128,01.355,553
2024-01-04T04:40:43,42.805,6.029,CST-1368DR,4069,4276,11132,01.354,553
2024-01-04T04:43:44,42.805,6.029,CST-1368DR,4069,4275,11130,01.355,553
2024-01-04T04:46:46,42.805,6.029,CST-1368DR,4069,4277,11135,01.353,552
2024-01-04T04:49:47,42.805,6.029,CST-1368DR,4069,4277,11135,01.353,553
2024-01-04T04:52:49,42.805,6.029,CST-1368DR,4069,4276,11132,01.354,553
2024-01-04T04:55:50,42.805,6.029,CST-1368DR,4069,4273,11125,01.356,553
2024-01-04T04:58:52,42.805,6.029,CST-1368DR,4069,4275,11130,01.355,553
2024-01-04T05:01:54,42.805,6.029,CST-1368DR,4069,4275,11130,01.355,553
2024-01-04T05:04:55,42.805,6.029,CST-1368DR,4069,4277,11134,01.353,553
2024-01-04T05:07:57,42.805,6.029,CST-1368DR,4069,4275,11130,01.355,553
2024-01-04T05:10:58,42.805,6.029,CST-1368DR,4069,4277,11134,01.353,553
2024-01-04T05:14:00,42.805,6.029,CST-1368DR,4069,4277,11135,01.353,553
2024-01-04T05:17:02,42.805,6.029,CST-1368DR,4069,4277,11134,01.353,553
2024-01-04T05:20:03,42.805,6.029,CST-1368DR,4069,4276,11132,01.354,553
2024-01-04T05:23:05,42.805,6.029,CST-1368DR,4069,4276,11132,01.354,553
2024-01-04T05:26:06,42.805,6.029,CST-1368DR,4069,4277,11134,01.353,553
2024-01-04T05:29:08,42.805,6.029,CST-1368DR,4069,4276,11133,01.354,553
2024-01-04T05:32:12,42.805,6.029,CST-1368DR,4069,4276,11132,01.354,553
2024-01-04T05:35:13,42.805,6.029,CST-1368DR,4069,4275,11130,01.355,553
2024-01-04T05:38:15,42.805,6.029,CST-1368DR,4069,4273,11125,01.356,553
2024-01-04T05:41:16,42.805,6.029,CST-1368DR,4069,4277,11134,01.353,553
2024-01-04T05:44:18,42.805,6.029,CST-1368DR,4069,4277,11134,01.353,553
2024-01-04T05:47:20,42.805,6.029,CST-1368DR,4069,4277,11134,01.353,553
2024-01-04T05:50:21,42.805,6.029,CST-1368DR,4069,4276,11133,01.354,553
2024-01-04T05:53:23,42.805,6.029,CST-1368DR,4069,4278,11137,01.352,553
2024-01-04T05:56:24,42.805,6.029,CST-1368DR,4069,4275,11128,01.355,553
2024-01-04T05:59:26,42.805,6.029,CST-1368DR,4069,4275,11130,01.355,553
2024-01-04T06:02:28,42.805,6.029,CST-1368DR,4069,4275,11128,01.355,553
2024-01-04T06:05:29,42.805,6.029,CST-1368DR,4069,4275,11130,01.355,553
2024-01-04T06:08:31,42.805,6.029,CST-1368DR,4069,4274,11126,01.356,553
2024-01-04T06:11:32,42.805,6.029,CST-1368DR,4069,4276,11132,01.354,553
2024-01-04T06:14:34,42.805,6.029,CST-1368DR,4069,4277,11134,01.353,553
2024-01-04T06:17:35,42.805,6.029,CST-1368DR,4069,4277,11134,01.353,553
2024-01-04T06:20:37,42.805,6.029,CST-1368DR,4069,4275,11130,01.355,553
2024-01-04T06:23:39,42.805,6.029,CST-1368DR,4069,4275,11130,01.355,553
2024-01-04T06:26:40,42.805,6.029,CST-1368DR,4069,4275,11130,01.355,553
2024-01-04T06:29:42,42.805,6.029,CST-1368DR,4069,4274,11127,01.356,553
2024-01-04T06:32:43,42.805,6.029,CST-1368DR,4069,4277,11134,01.353,553
2024-01-04T06:35:45,42.805,6.029,CST-1368DR,4069,4274,11128,01.355,553
2024-01-04T06:38:46,42.805,6.029,CST-1368DR,4069,4274,11128,01.355,553
2024-01-04T06:41:48,42.805,6.029,CST-1368DR,4069,4275,11130,01.355,553
2024-01-04T06:44:50,42.805,6.029,CST-1368DR,4069,4277,11134,01.353,553
2024-01-04T06:47:51,42.805,6.029,CST-1368DR,4069,4276,11133,01.354,553
2024-01-04T06:50:53,42.805,6.029,CST-1368DR,4069,4276,11132,01.354,553
2024-01-04T06:53:54,42.805,6.029,CST-1368DR,4069,4275,11130,01.355,553
2024-01-04T06:56:56,42.805,6.029,CST-1368DR,4069,4254,11074,01.375,553
2024-01-04T06:59:58,42.805,6.029,CST-1368DR,4069,4275,11129,01.355,553
2024-01-04T07:02:59,42.805,6.029,CST-1368DR,4069,4276,11132,01.354,553
2024-01-04T07:06:01,42.805,6.029,CST-1368DR,4069,4275,11130,01.355,553
2024-01-04T07:09:02,42.805,6.029,CST-1368DR,4069,4272,11121,01.358,553
2024-01-04T07:12:04,42.805,6.029,CST-1368DR,4069,4277,11134,01.353,553
2024-01-04T07:15:05,42.805,6.029,CST-1368DR,4069,4275,11130,01.355,553
2024-01-04T07:18:07,42.805,6.029,CST-1368DR,4069,4275,11128,01.355,553
2024-01-04T07:21:09,42.805,6.029,CST-1368DR,4069,4276,11132,01.354,553
2024-01-04T07:24:10,42.805,6.029,CST-1368DR,4069,4276,11132,01.354,553
2024-01-04T07:27:12,42.805,6.029,CST-1368DR,4069,4276,11133,01.354,553
2024-01-04T07:30:15,42.805,6.029,CST-1368DR,4069,4277,11134,01.353,553
2024-01-04T07:33:16,42.805,6.029,CST-1368DR,4069,4277,11134,01.353,553
2024-01-04T07:36:18,42.805,6.029,CST-1368DR,4069,4278,11137,01.352,553
2024-01-04T07:39:20,42.805,6.029,CST-1368DR,4069,4276,11133,01.354,553
2024-01-04T07:42:21,42.805,6.029,CST-1368DR,4069,4276,11132,01.354,553
2024-01-04T07:45:23,42.805,6.029,CST-1368DR,4069,4277,11135,01.353,553
2024-01-04T07:48:24,42.805,6.029,CST-1368DR,4069,4278,11136,01.352,553
2024-01-04T07:51:26,42.805,6.029,CST-1368DR,4069,4276,11133,01.354,553
2024-01-04T07:54:27,42.805,6.029,CST-1368DR,4069,4275,11130,01.355,553
2024-01-04T07:57:29,42.805,6.029,CST-1368DR,4069,4276,11132,01.354,553
2024-01-04T08:00:31,42.805,6.029,CST-1368DR,4069,4276,11132,01.354,553
2024-01-04T08:03:32,42.805,6.029,CST-1368DR,4069,4275,11130,01.355,553
2024-01-04T08:06:34,42.805,6.029,CST-1368DR,4069,4275,11130,01.355,553
2024-01-04T08:09:35,42.805,6.029,CST-1368DR,4069,4275,11130,01.355,553
2024-01-04T08:12:37,42.805,6.029,CST-1368DR,4069,4276,11133,01.354,553
2024-01-04T08:15:39,42.805,6.029,CST-1368DR,4069,4275,11128,01.355,553
2024-01-04T08:18:40,42.805,6.029,CST-1368DR,4069,4274,11126,01.356,553
2024-01-04T08:21:42,42.805,6.029,CST-1368DR,4069,4274,11127,01.356,553
2024-01-04T08:24:43,42.805,6.029,CST-1368DR,4069,4275,11130,01.355,553
2024-01-04T08:27:45,42.805,6.029,CST-1368DR,4069,4274,11127,01.356,553
2024-01-04T08:30:46,42.805,6.029,CST-1368DR,4069,4275,11129,01.355,553
2024-01-04T08:33:48,42.805,6.029,CST-1368DR,4069,4273,11124,01.357,553
2024-01-04T08:36:50,42.805,6.029,CST-1368DR,4069,4275,11128,01.355,553
2024-01-04T08:39:51,42.805,6.029,CST-1368DR,4069,4277,11136,01.352,553
2024-01-04T08:42:53,42.805,6.029,CST-1368DR,4069,4278,11137,01.352,553
2024-01-04T08:45:54,42.805,6.029,CST-1368DR,4069,4275,11130,01.355,553
2024-01-04T08:48:56,42.805,6.029,CST-1368DR,4069,4277,11136,01.352,553
2024-01-04T08:51:57,42.805,6.029,CST-1368DR,4069,4276,11133,01.354,553
2024-01-04T08:54:59,42.805,6.029,CST-1368DR,4069,4279,11139,01.351,553
2024-01-04T08:58:01,42.805,6.029,CST-1368DR,4069,4277,11135,01.353,553
2024-01-04T09:01:02,42.805,6.029,CST-1368DR,4069,4276,11133,01.354,553
2024-01-04T09:04:04,42.805,6.029,CST-1368DR,4069,4276,11133,01.354,553
2024-01-04T09:07:05,42.805,6.029,CST-1368DR,4069,4279,11139,01.351,553
2024-01-04T09:10:07,42.805,6.029,CST-1368DR,4069,4276,11132,01.354,553
2024-01-04T09:13:09,42.805,6.029,CST-1368DR,4069,4276,11133,01.354,553
2024-01-04T09:16:10,42.805,6.029,CST-1368DR,4069,4277,11134,01.353,553
2024-01-04T09:19:12,42.805,6.029,CST-1368DR,4069,4278,11138,01.352,553
2024-01-04T09:22:13,42.805,6.029,CST-1368DR,4069,4277,11136,01.352,553
2024-01-04T09:25:15,42.805,6.029,CST-1368DR,4069,4277,11135,01.353,553
2024-01-04T09:28:16,42.805,6.029,CST-1368DR,4069,4277,11134,01.353,553
2024-01-04T09:31:18,42.805,6.029,CST-1368DR,4069,4279,11139,01.351,553
2024-01-04T09:34:20,42.805,6.029,CST-1368DR,4069,4279,11139,01.351,553
2024-01-04T09:37:21,42.805,6.029,CST-1368DR,4069,4276,11132,01.354,553
2024-01-04T09:40:23,42.805,6.029,CST-1368DR,4069,4277,11134,01.353,553
2024-01-04T09:43:24,42.805,6.029,CST-1368DR,4069,4277,11136,01.352,553
2024-01-04T09:46:26,42.805,6.029,CST-1368DR,4069,4277,11134,01.353,553
2024-01-04T09:49:28,42.805,6.029,CST-1368DR,4069,4277,11135,01.353,553
2024-01-04T09:52:29,42.805,6.029,CST-1368DR,4069,4275,11130,01.355,553
2024-01-04T09:55:31,42.805,6.029,CST-1368DR,4069,4278,11137,01.352,553
2024-01-04T09:58:32,42.805,6.029,CST-1368DR,4069,4277,11134,01.353,553
2024-01-04T10:01:34,42.805,6.029,CST-1368DR,4069,4277,11134,01.353,553
2024-01-04T10:04:36,42.805,6.029,CST-1368DR,4069,4275,11128,01.355,553
2024-01-04T10:07:37,42.805,6.029,CST-1368DR,4069,4279,11139,01.351,553
2024-01-04T10:10:39,42.805,6.029,CST-1368DR,4069,4277,11136,01.352,553
2024-01-04T10:13:40,42.805,6.029,CST-1368DR,4069,4278,11137,01.352,553
2024-01-04T10:16:42,42.805,6.029,CST-1368DR,4069,4278,11138,01.352,553
2024-01-04T10:19:43,42.805,6.029,CST-1368DR,4069,4280,11141,01.351,553
2024-01-04T10:22:45,42.805,6.029,CST-1368DR,4069,4278,11137,01.352,553
2024-01-04T10:25:47,42.805,6.029,CST-1368DR,4069,4278,11138,01.352,553
2024-01-04T10:28:48,42.805,6.029,CST-1368DR,4069,4277,11136,01.352,553
2024-01-04T10:31:50,42.805,6.029,CST-1368DR,4069,4277,11134,01.353,553
2024-01-04T10:34:51,42.805,6.029,CST-1368DR,4069,4279,11140,01.351,553
2024-01-04T10:37:53,42.805,6.029,CST-1368DR,4069,4280,11142,01.350,553
2024-01-04T10:40:54,42.805,6.029,CST-1368DR,4069,4276,11132,01.354,553
2024-01-04T10:43:56,42.805,6.029,CST-1368DR,4069,4278,11138,01.352,553
2024-01-04T10:46:58,42.805,6.029,CST-1368DR,4069,4279,11141,01.351,553
2024-01-04T10:49:59,42.805,6.029,CST-1368DR,4069,4277,11136,01.352,553
2024-01-04T10:53:01,42.805,6.029,CST-1368DR,4069,4276,11132,01.354,553
2024-01-04T10:56:02,42.805,6.029,CST-1368DR,4069,4277,11136,01.352,553
2024-01-04T10:59:04,42.805,6.029,CST-1368DR,4069,4278,11137,01.352,553
2024-01-04T11:02:06,42.805,6.029,CST-1368DR,4069,4279,11140,01.351,553
2024-01-04T11:05:07,42.805,6.029,CST-1368DR,4069,4280,11141,01.351,553
2024-01-04T11:08:09,42.805,6.029,CST-1368DR,4069,4279,11140,01.351,553
2024-01-04T11:11:10,42.805,6.029,CST-1368DR,4069,4279,11141,01.351,553
2024-01-04T11:14:12,42.805,6.029,CST-1368DR,4069,4278,11137,01.352,553
2024-01-04T11:17:13,42.805,6.029,CST-1368DR,4069,4277,11135,01.353,553
2024-01-04T11:20:15,42.805,6.029,CST-1368DR,4069,4277,11135,01.353,553
2024-01-04T11:23:17,42.805,6.029,CST-1368DR,4069,4280,11142,01.350,553
2024-01-04T11:26:18,42.805,6.029,CST-1368DR,4069,4278,11137,01.352,553
2024-01-04T11:29:20,42.805,6.029,CST-1368DR,4069,4277,11135,01.353,553
2024-01-04T11:32:23,42.805,6.029,CST-1368DR,4069,4277,11134,01.353,553
2024-01-04T11:35:24,42.805,6.029,CST-1368DR,4069,4277,11135,01.353,553
2024-01-04T11:38:26,42.805,6.029,CST-1368DR,4069,4281,11145,01.349,553
2024-01-04T11:41:27,42.805,6.029,CST-1368DR,4069,4277,11136,01.352,553
2024-01-04T11:44:29,42.805,6.029,CST-1368DR,4069,4279,11140,01.351,553
2024-01-04T11:47:30,42.805,6.029,CST-1368DR,4069,4278,11138,01.352,553
2024-01-04T11:50:32,42.805,6.029,CST-1368DR,4069,4278,11136,01.352,553
2024-01-04T11:53:34,42.805,6.029,CST-1368DR,4069,4277,11134,01.353,553
2024-01-04T11:56:35,42.805,6.029,CST-1368DR,4069,4277,11136,01.352,553
2024-01-04T11:59:37,42.805,6.029,CST-1368DR,4069,4277,11136,01.352,553
2024-01-04T12:02:38,42.805,6.029,CST-1368DR,4069,4279,11141,01.351,553
2024-01-04T12:05:40,42.805,6.029,CST-1368DR,4069,4278,11136,01.352,553
2024-01-04T12:08:42,42.805,6.029,CST-1368DR,4069,4278,11136,01.352,553
2024-01-04T12:11:43,42.805,6.029,CST-1368DR,4069,4277,11136,01.352,553
2024-01-04T12:14:45,42.805,6.029,CST-1368DR,4069,4278,11137,01.352,553
2024-01-04T12:17:46,42.805,6.029,CST-1368DR,4069,4278,11138,01.352,553
2024-01-04T12:20:48,42.805,6.029,CST-1368DR,4069,4277,11135,01.353,553
2024-01-04T12:23:49,42.805,6.029,CST-1368DR,4069,4278,11138,01.352,553
2024-01-04T12:26:51,42.805,6.029,CST-1368DR,4069,4279,11139,01.351,553
2024-01-04T12:29:53,42.805,6.029,CST-1368DR,4069,4278,11137,01.352,553
2024-01-04T12:32:54,42.805,6.029,CST-1368DR,4069,4278,11137,01.352,553
2024-01-04T12:35:56,42.805,6.029,CST-1368DR,4069,4276,11132,01.354,553
2024-01-04T12:38:57,42.805,6.029,CST-1368DR,4069,4279,11139,01.351,553
2024-01-04T12:41:59,42.805,6.029,CST-1368DR,4069,4278,11137,01.352,553
2024-01-04T12:45:00,42.805,6.029,CST-1368DR,4069,4278,11137,01.352,553
2024-01-04T12:48:02,42.805,6.029,CST-1368DR,4069,4276,11132,01.354,553
2024-01-04T12:51:04,42.805,6.029,CST-1368DR,4069,4274,11128,01.355,553
2024-01-04T12:54:05,42.805,6.029,CST-1368DR,4069,4276,11133,01.354,553
2024-01-04T12:57:07,42.805,6.029,CST-1368DR,4069,4278,11136,01.352,553
2024-01-04T13:00:08,42.805,6.029,CST-1368DR,4069,4277,11134,01.353,553
2024-01-04T13:03:10,42.805,6.029,CST-1368DR,4069,4276,11133,01.354,553
2024-01-04T13:06:12,42.805,6.029,CST-1368DR,4069,4277,11135,01.353,553
2024-01-04T13:09:13,42.805,6.029,CST-1368DR,4069,4278,11136,01.352,553
2024-01-04T13:12:15,42.805,6.029,CST-1368DR,4069,4277,11135,01.353,553
2024-01-04T13:15:16,42.805,6.029,CST-1368DR,4069,4276,11132,01.354,553
2024-01-04T13:18:18,42.805,6.029,CST-1368DR,4069,4277,11134,01.353,553
2024-01-04T13:21:19,42.805,6.029,CST-1368DR,4069,4263,11098,01.366,553
2024-01-04T13:24:21,42.805,6.029,CST-1368DR,4069,4263,11098,01.366,553
2024-01-04T13:27:23,42.805,6.029,CST-1368DR,4069,4262,11095,01.367,553
2024-01-04T13:30:26,42.805,6.029,CST-1368DR,4069,4264,11102,01.365,553
2024-01-04T13:33:27,42.805,6.029,CST-1368DR,4069,4264,11100,01.365,553
2024-01-04T13:36:29,42.805,6.029,CST-1368DR,4069,4262,11096,01.367,553
2024-01-04T13:39:30,42.805,6.029,CST-1368DR,4069,4264,11100,01.365,553
2024-01-04T13:42:32,42.805,6.029,CST-1368DR,4069,4262,11095,01.367,553
2024-01-04T13:45:34,42.805,6.029,CST-1368DR,4069,4264,11100,01.365,553
2024-01-04T13:48:35,42.805,6.029,CST-1368DR,4069,4264,11100,01.365,553
2024-01-04T13:51:37,42.805,6.029,CST-1368DR,4069,4264,11100,01.365,553
2024-01-04T13:54:38,42.805,6.029,CST-1368DR,4069,4262,11096,01.367,553
2024-01-04T13:57:40,42.805,6.029,CST-1368DR,4069,4261,11094,01.368,553
2024-01-04T14:00:41,42.805,6.029,CST-1368DR,4069,4274,11126,01.356,553
2024-01-04T14:03:43,42.805,6.029,CST-1368DR,4069,4276,11132,01.354,553
2024-01-04T14:06:45,42.805,6.029,CST-1368DR,4069,4276,11132,01.354,553
2024-01-04T14:09:46,42.805,6.029,CST-1368DR,4069,4275,11130,01.355,553
2024-01-04T14:12:48,42.805,6.029,CST-1368DR,4069,4276,11132,01.354,553
2024-01-04T14:15:49,42.805,6.029,CST-1368DR,4069,4275,11129,01.355,553
2024-01-04T14:18:51,42.805,6.029,CST-1368DR,4069,4275,11130,01.355,553
2024-01-04T14:21:53,42.805,6.029,CST-1368DR,4069,4272,11121,01.358,553
2024-01-04T14:24:54,42.805,6.029,CST-1368DR,4069,4275,11129,01.355,553
2024-01-04T14:27:56,42.805,6.029,CST-1368DR,4069,4275,11130,01.355,553
2024-01-04T14:30:57,42.805,6.029,CST-1368DR,4069,4274,11128,01.355,553
2024-01-04T14:33:59,42.805,6.029,CST-1368DR,4069,4275,11130,01.355,553
2024-01-04T14:37:00,42.805,6.029,CST-1368DR,4069,4276,11132,01.354,553
2024-01-04T14:40:02,42.805,6.029,CST-1368DR,4069,4276,11132,01.354,553
2024-01-04T14:43:04,42.805,6.029,CST-1368DR,4069,4275,11129,01.355,553
2024-01-04T14:46:05,42.805,6.029,CST-1368DR,4069,4274,11127,01.356,553
2024-01-04T14:49:07,42.805,6.029,CST-1368DR,4069,4274,11127,01.356,553
2024-01-04T14:52:08,42.805,6.029,CST-1368DR,4069,4275,11128,01.355,553
2024-01-04T14:55:10,42.805,6.029,CST-1368DR,4069,4276,11132,01.354,553
2024-01-04T14:58:11,42.805,6.029,CST-1368DR,4069,4275,11130,01.355,553
2024-01-04T15:01:13,42.805,6.029,CST-1368DR,4069,4277,11134,01.353,553
2024-01-04T15:04:15,42.805,6.029,CST-1368DR,4069,4275,11128,01.355,553
2024-01-04T15:07:16,42.805,6.029,CST-1368DR,4069,4274,11127,01.356,553
2024-01-04T15:10:18,42.805,6.029,CST-1368DR,4069,4275,11130,01.355,553
2024-01-04T15:13:19,42.805,6.029,CST-1368DR,4069,4275,11130,01.355,553
2024-01-04T15:16:21,42.805,6.029,CST-1368DR,4069,4276,11133,01.354,553
2024-01-04T15:19:23,42.805,6.029,CST-1368DR,4069,4273,11125,01.356,553
2024-01-04T15:22:24,42.805,6.029,CST-1368DR,4069,4276,11132,01.354,553
2024-01-04T15:25:26,42.805,6.029,CST-1368DR,4069,4277,11134,01.353,553
2024-01-04T15:28:27,42.805,6.029,CST-1368DR,4069,4276,11133,01.354,553
2024-01-04T15:31:29,42.805,6.029,CST-1368DR,4069,4276,11132,01.354,553
2024-01-04T15:34:31,42.805,6.029,CST-1368DR,4069,4273,11125,01.356,553
2024-01-04T15:37:32,42.805,6.029,CST-1368DR,4069,4274,11128,01.355,553
2024-01-04T15:40:34,42.805,6.029,CST-1368DR,4069,4276,11133,01.354,553
2024-01-04T15:43:35,42.805,6.029,CST-1368DR,4069,4276,11132,01.354,553
2024-01-04T15:46:37,42.805,6.029,CST-1368DR,4069,4276,11132,01.354,553
2024-01-04T15:49:38,42.805,6.029,CST-1368DR,4069,4275,11129,01.355,553
2024-01-04T15:52:40,42.805,6.029,CST-1368DR,4069,4275,11129,01.355,553
2024-01-04T15:55:42,42.805,6.029,CST-1368DR,4069,4275,11130,01.355,553
2024-01-04T15:58:43,42.805,6.029,CST-1368DR,4069,4275,11130,01.355,553
2024-01-04T16:01:45,42.805,6.029,CST-1368DR,4069,4275,11129,01.355,553
2024-01-04T16:04:46,42.805,6.029,CST-1368DR,4069,4275,11129,01.355,553
2024-01-04T16:07:48,42.805,6.029,CST-1368DR,4069,4275,11128,01.355,553
2024-01-04T16:10:49,42.805,6.029,CST-1368DR,4069,4276,11132,01.354,553
2024-01-04T16:13:51,42.805,6.029,CST-1368DR,4069,4276,11132,01.354,553
2024-01-04T16:16:53,42.805,6.029,CST-1368DR,4069,4275,11128,01.355,553
2024-01-04T16:19:54,42.805,6.029,CST-1368DR,4069,4275,11130,01.355,553
2024-01-04T16:22:56,42.805,6.029,CST-1368DR,4069,4273,11125,01.356,553
2024-01-04T16:25:57,42.805,6.029,CST-1368DR,4069,4274,11128,01.355,553
2024-01-04T16:28:59,42.805,6.029,CST-1368DR,4068,4252,11072,01.376,553
2024-01-04T16:32:01,42.805,6.029,CST-1368DR,4069,4276,11132,01.354,553
2024-01-04T16:35:02,42.805,6.029,CST-1368DR,4069,4276,11132,01.354,553
2024-01-04T16:38:04,42.805,6.029,CST-1368DR,4069,4274,11128,01.355,553